Weather History for Teterboro, NJ

Change the Weather History Date:

Thursday, May 3, 2012

  Actual Average Record
Temperature  
Mean Temperature 56 °F -  
Max Temperature 66 °F 67 °F 95 °F (2001)
Min Temperature 51 °F 46 °F 37 °F (2005)
Degree Days  
Heating Degree Days 8    
Growing Degree Days 6 (Base 50)    
Moisture  
Dew Point 49 °F    
Average Humidity 80    
Maximum Humidity 89    
Minimum Humidity 67    
Precipitation  
Precipitation 0.03 in - - ()
Sea Level Pressure  
Sea Level Pressure 30.12 in    
Wind  
Wind Speed 4 mph (SSE)    
Max Wind Speed 8 mph    
Max Gust Speed 20 mph    
Visibility 5 miles    
Events Rain , Thunderstorm    
Averages and records for this station are not official NWS values.
T = Trace of Precipitation, MM = Missing Value Source: NWS Daily Summary

Daily Weather History Graph

Daily Weather History Graph

Search for Another Location

Airport:

Trip Planner

Search our weather history database for the weather conditions in past years. The results will help you decide how hot, cold, wet, or windy it might be!

Date:

Astronomy

May. 03, 2012 Rise Set
Actual Time 5:51 AM EDT 7:55 PM EDT
Civil Twilight 5:21 AM EDT 8:25 PM EDT
Nautical Twilight 4:44 AM EDT 9:02 PM EDT
Astronomical Twilight 4:04 AM EDT 9:42 PM EDT
Moon 5:15 PM EDT (5/3) 3:55 AM EDT (5/3)
Length of Visible Light 15h 03m
Length of Day
14h 03m
Waxing Gibbous, 91% of the Moon is Illuminated
May 3
Waxing Gibbous
May 5
Full
May 12
Last Quarter
May 20
New
May 28
First Quarter

Hourly Weather History & Observations

Time (EDT) Temp. Dew Point Humidity Pressure Visibility Wind Dir Wind Speed Gust Speed Precip Events Conditions
12:51 AM 53.1 °F 46.0 °F 77% 30.14 in 10.0 mi SSE 5.8 mph - N/A   Overcast
1:20 AM 53.6 °F 46.4 °F 77% 30.13 in 10.0 mi SE 5.8 mph - N/A   Overcast
1:42 AM 53.6 °F 46.4 °F 77% 30.13 in 8.0 mi SE 5.8 mph - N/A Rain , Thunderstorm Thunderstorms and Rain
1:51 AM 52.0 °F 46.9 °F 83% 30.17 in 4.0 mi NNW 4.6 mph - N/A Rain , Thunderstorm Thunderstorms and Rain
1:57 AM 51.8 °F 46.4 °F 82% 30.20 in 1.8 mi West 8.1 mph - N/A Rain , Thunderstorm Heavy Thunderstorms and Rain
2:03 AM 51.8 °F 48.2 °F 88% 30.18 in 0.8 mi WSW 5.8 mph - N/A Rain , Thunderstorm Heavy Thunderstorms and Rain
2:08 AM 51.8 °F 48.2 °F 88% 30.16 in 1.0 mi South 6.9 mph - N/A Rain , Thunderstorm Heavy Thunderstorms and Rain
2:14 AM 51.8 °F 48.2 °F 88% 30.15 in 2.0 mi South 5.8 mph - N/A Rain , Thunderstorm Heavy Thunderstorms and Rain
2:51 AM 51.1 °F 48.0 °F 89% 30.12 in 2.0 mi South 3.5 mph - N/A Rain , Thunderstorm Thunderstorms and Rain
2:58 AM 51.8 °F 48.2 °F 88% 30.10 in 4.0 mi SSE 4.6 mph - 0.01 in Rain , Thunderstorm Thunderstorms and Rain
3:13 AM 51.8 °F 48.2 °F 88% 30.10 in 6.0 mi South 5.8 mph - 0.02 in Rain Light Rain
3:41 AM 51.8 °F 48.2 °F 88% 30.12 in 6.0 mi Calm Calm - 0.03 in Rain Light Rain
3:51 AM 52.0 °F 48.0 °F 86% 30.12 in 6.0 mi Calm Calm - 0.03 in Rain Light Rain
4:02 AM 51.8 °F 48.2 °F 88% 30.12 in 10.0 mi Calm Calm - 0.00 in Rain Light Rain
4:51 AM 52.0 °F 48.0 °F 86% 30.12 in 10.0 mi Calm Calm - 0.00 in   Overcast
5:51 AM 53.1 °F 48.0 °F 83% 30.13 in 10.0 mi Calm Calm - N/A   Overcast
6:24 AM 53.6 °F 48.2 °F 82% 30.12 in 10.0 mi Calm Calm - N/A   Overcast
6:51 AM 53.1 °F 48.0 °F 83% 30.14 in 7.0 mi Calm Calm - N/A   Overcast
7:51 AM 53.1 °F 48.9 °F 86% 30.15 in 7.0 mi Calm Calm - N/A   Overcast
7:58 AM 53.6 °F 48.2 °F 82% 30.15 in 6.0 mi South 3.5 mph - N/A   Overcast
8:26 AM 53.6 °F 48.2 °F 82% 30.15 in 6.0 mi South 3.5 mph - N/A   Overcast
8:51 AM 53.1 °F 48.9 °F 86% 30.14 in 6.0 mi South 4.6 mph - N/A   Overcast
9:51 AM 54.0 °F 48.9 °F 83% 30.14 in 5.0 mi SW 3.5 mph - N/A   Haze
10:51 AM 55.9 °F 48.9 °F 77% 30.14 in 3.0 mi SSW 5.8 mph - N/A   Haze
10:59 AM 55.4 °F 50.0 °F 82% 30.14 in 3.0 mi SW 3.5 mph - N/A   Haze
11:51 AM 57.0 °F 50.0 °F 77% 30.14 in 4.0 mi Calm Calm - N/A   Haze
11:58 AM 57.2 °F 50.0 °F 77% 30.13 in 4.0 mi Calm Calm - N/A   Haze
12:51 PM 57.9 °F 50.0 °F 75% 30.12 in 4.0 mi Variable 5.8 mph - N/A   Haze
1:51 PM 61.0 °F 50.0 °F 67% 30.12 in 5.0 mi SE 5.8 mph - N/A   Haze
1:58 PM 60.8 °F 50.0 °F 68% 30.12 in 5.0 mi SE 8.1 mph - N/A   Haze
2:51 PM 59.0 °F 50.0 °F 72% 30.11 in 5.0 mi SSE 5.8 mph - N/A   Haze
3:51 PM 59.0 °F 50.0 °F 72% 30.11 in 5.0 mi SSE 5.8 mph - N/A   Haze
4:51 PM 59.0 °F 51.1 °F 75% 30.10 in 5.0 mi Calm Calm - N/A   Haze
5:51 PM 60.1 °F 51.1 °F 72% 30.09 in 4.0 mi SE 5.8 mph - N/A   Haze
6:46 PM 59.0 °F 51.8 °F 77% 30.07 in 5.0 mi ESE 4.6 mph - N/A   Haze
6:51 PM 59.0 °F 51.1 °F 75% 30.07 in 5.0 mi SE 5.8 mph - N/A   Haze
7:51 PM 62.1 °F 51.1 °F 67% 30.10 in 4.0 mi East 8.1 mph 19.6 mph N/A   Haze
8:51 PM 57.9 °F 51.1 °F 78% 30.09 in 3.0 mi East 5.8 mph - N/A   Haze
9:20 PM 57.2 °F 51.8 °F 82% 30.09 in 4.0 mi East 5.8 mph - 0.00 in   Light Drizzle
9:51 PM 55.9 °F 51.1 °F 84% 30.10 in 3.0 mi SE 3.5 mph - 0.00 in   Light Drizzle
10:51 PM 57.9 °F 51.1 °F 78% 30.10 in 5.0 mi ESE 5.8 mph - 0.00 in   Light Drizzle
11:51 PM 55.0 °F 50.0 °F 83% 30.08 in 6.0 mi ESE 5.8 mph - 0.00 in   Light Drizzle